Location: Brno
(49.2000°N, 16.6330°E)
Time: 09:27:37
(UTC+02:00)

ISS - Pass Details

Date: 19 May 2021
Orbit: 417 x 422 km, 51.6° (Epoch: 13 June)

Event Time Altitude Azimuth Distance (km) Brightness Sun altitude
Rises 22:06:02 0° 260° (W) 2,360 0.5 -11.8°
Reaches altitude 10° 22:08:08 10° 263° (W) 1,499 -0.5 -12.1°
Maximum altitude 22:11:29 67° 347° (NNW) 458 -3.4 -12.4°
Drops below altitude 10° 22:14:51 10° 71° (ENE) 1,505 -1.1 -12.7°
Sets 22:16:58 0° 74° (ENE) 2,372 -0.1 -12.9°
